TimeEDT,TemperatureF,Dew PointF,Humidity,Sea Level PressureIn,VisibilityMPH,Wind Direction,Wind SpeedMPH,Gust SpeedMPH,PrecipitationIn,Events,Conditions,WindDirDegrees,DateUTC
12:15 AM,31.1,18.3,59,29.74,10.0,NNE,12.7,23.0,N/A,,Overcast,30,2013-03-25 04:15:00
12:34 AM,31.1,18.9,61,29.74,10.0,NNE,12.7,19.6,N/A,,Overcast,30,2013-03-25 04:34:00
12:55 AM,31.1,19.2,61,29.74,10.0,NNE,13.8,18.4,N/A,,Overcast,30,2013-03-25 04:55:00
1:14 AM,31.1,19.4,62,29.74,10.0,NNE,9.2,21.9,N/A,,Overcast,20,2013-03-25 05:14:00
1:34 AM,31.1,19.2,61,29.74,10.0,North,9.2,16.1,N/A,,Overcast,360,2013-03-25 05:34:00
1:55 AM,31.1,18.9,61,29.74,10.0,North,10.4,-,N/A,,Overcast,10,2013-03-25 05:55:00
2:14 AM,30.7,19.0,62,29.74,10.0,North,10.4,-,N/A,,Overcast,360,2013-03-25 06:14:00
2:35 AM,30.2,19.2,64,29.73,10.0,North,10.4,-,N/A,,Mostly Cloudy,10,2013-03-25 06:35:00
2:54 AM,29.8,19.0,64,29.73,10.0,North,8.1,-,N/A,,Scattered Clouds,360,2013-03-25 06:54:00
3:14 AM,29.3,19.2,66,29.73,10.0,North,8.1,-,N/A,,Clear,360,2013-03-25 07:14:00
3:35 AM,29.3,19.2,66,29.73,10.0,North,10.4,-,N/A,,Clear,350,2013-03-25 07:35:00
3:54 AM,29.1,19.4,67,29.72,10.0,North,9.2,-,N/A,,Clear,350,2013-03-25 07:54:00
4:15 AM,28.4,19.4,69,29.71,10.0,North,6.9,-,N/A,,Clear,360,2013-03-25 08:15:00
4:54 AM,28.2,19.9,71,29.70,10.0,North,6.9,-,N/A,,Clear,350,2013-03-25 08:54:00
5:15 AM,28.0,19.9,72,29.70,10.0,North,5.8,-,N/A,,Clear,350,2013-03-25 09:15:00
5:34 AM,27.7,19.8,72,29.70,10.0,North,8.1,-,N/A,,Clear,360,2013-03-25 09:34:00
5:55 AM,27.5,19.9,73,29.70,10.0,North,8.1,-,N/A,,Clear,360,2013-03-25 09:55:00
6:15 AM,27.7,20.3,74,29.70,10.0,North,8.1,-,N/A,,Clear,360,2013-03-25 10:15:00
6:34 AM,27.9,20.5,74,29.71,10.0,North,4.6,-,N/A,,Clear,350,2013-03-25 10:34:00
6:55 AM,27.1,20.7,77,29.72,10.0,NNW,6.9,-,N/A,,Clear,340,2013-03-25 10:55:00
7:14 AM,27.0,20.7,77,29.72,10.0,North,6.9,-,N/A,,Clear,350,2013-03-25 11:14:00
7:34 AM,27.1,21.0,78,29.73,10.0,North,6.9,-,N/A,,Clear,350,2013-03-25 11:34:00
7:55 AM,26.8,21.2,79,29.73,10.0,North,8.1,-,N/A,,Clear,350,2013-03-25 11:55:00
8:14 AM,27.1,21.7,80,29.74,10.0,North,8.1,-,N/A,,Scattered Clouds,350,2013-03-25 12:14:00
8:35 AM,27.7,22.1,80,29.75,10.0,North,8.1,-,N/A,,Mostly Cloudy,360,2013-03-25 12:35:00
8:55 AM,28.8,22.3,77,29.75,10.0,North,8.1,-,N/A,,Overcast,350,2013-03-25 12:55:00
9:14 AM,29.3,22.6,76,29.76,10.0,NNW,6.9,-,N/A,,Overcast,340,2013-03-25 13:14:00
9:35 AM,30.0,22.5,73,29.76,10.0,North,8.1,-,N/A,,Overcast,350,2013-03-25 13:35:00
9:54 AM,30.9,22.8,72,29.76,10.0,North,9.2,-,N/A,,Overcast,350,2013-03-25 13:54:00
10:14 AM,31.5,23.2,71,29.76,10.0,NNW,9.2,-,N/A,,Overcast,340,2013-03-25 14:14:00
10:35 AM,32.0,23.5,71,29.77,10.0,NNW,10.4,-,N/A,,Overcast,330,2013-03-25 14:35:00
10:54 AM,32.0,23.2,70,29.77,10.0,NNW,11.5,-,N/A,,Overcast,330,2013-03-25 14:54:00
11:15 AM,33.1,23.5,68,29.78,10.0,NNW,11.5,-,N/A,,Overcast,340,2013-03-25 15:15:00
11:34 AM,33.8,23.7,67,29.78,10.0,NNW,12.7,-,N/A,,Overcast,330,2013-03-25 15:34:00
11:54 AM,34.9,23.4,63,29.78,10.0,North,11.5,19.6,N/A,,Overcast,360,2013-03-25 15:54:00
12:14 PM,35.8,22.8,59,29.78,10.0,North,13.8,-,N/A,,Overcast,360,2013-03-25 16:14:00
12:34 PM,36.0,22.3,58,29.79,10.0,NNW,11.5,20.7,N/A,,Overcast,340,2013-03-25 16:34:00
12:55 PM,35.6,22.1,58,29.79,10.0,NNW,11.5,17.3,N/A,,Overcast,330,2013-03-25 16:55:00
1:14 PM,35.1,22.8,61,29.80,10.0,NNW,13.8,-,N/A,,Overcast,330,2013-03-25 17:14:00
1:34 PM,35.2,23.4,62,29.80,10.0,NNW,13.8,19.6,N/A,,Overcast,340,2013-03-25 17:34:00
1:55 PM,36.5,22.6,57,29.80,10.0,NNW,11.5,17.3,N/A,,Overcast,330,2013-03-25 17:55:00
2:14 PM,36.9,19.6,50,29.80,10.0,North,12.7,18.4,N/A,,Overcast,360,2013-03-25 18:14:00
2:35 PM,36.0,21.4,55,29.81,10.0,NNW,10.4,19.6,N/A,,Overcast,340,2013-03-25 18:35:00
2:55 PM,36.7,19.9,51,29.81,10.0,North,13.8,23.0,N/A,,Overcast,350,2013-03-25 18:55:00
3:14 PM,36.9,19.8,50,29.81,10.0,NNW,8.1,18.4,N/A,,Overcast,340,2013-03-25 19:14:00
3:35 PM,36.9,20.5,52,29.82,10.0,North,11.5,-,N/A,,Overcast,350,2013-03-25 19:35:00
3:54 PM,37.0,20.8,52,29.82,10.0,NNW,12.7,21.9,N/A,,Overcast,340,2013-03-25 19:54:00
4:14 PM,37.6,20.5,50,29.82,10.0,NW,15.0,-,N/A,,Overcast,320,2013-03-25 20:14:00
4:35 PM,37.4,21.7,53,29.83,10.0,NNW,12.7,17.3,N/A,,Overcast,340,2013-03-25 20:35:00
4:54 PM,37.4,21.4,52,29.83,10.0,NNW,13.8,18.4,N/A,,Overcast,330,2013-03-25 20:54:00
5:14 PM,37.4,21.6,53,29.84,10.0,NNW,12.7,17.3,N/A,,Overcast,340,2013-03-25 21:14:00
5:35 PM,37.0,21.2,53,29.84,10.0,NNW,11.5,-,N/A,,Overcast,340,2013-03-25 21:35:00
5:54 PM,37.0,21.0,52,29.85,10.0,NNW,13.8,-,N/A,,Overcast,340,2013-03-25 21:54:00
6:15 PM,36.7,21.6,54,29.86,10.0,North,6.9,-,N/A,,Overcast,350,2013-03-25 22:15:00
6:34 PM,36.5,21.6,55,29.86,10.0,NNW,13.8,17.3,N/A,,Overcast,340,2013-03-25 22:34:00
6:54 PM,36.3,21.4,55,29.88,10.0,NNW,11.5,-,N/A,,Overcast,330,2013-03-25 22:54:00
7:14 PM,36.1,21.9,56,29.89,10.0,NNW,6.9,-,N/A,,Overcast,340,2013-03-25 23:14:00
7:34 PM,35.8,21.9,57,29.90,10.0,NNW,10.4,-,N/A,,Overcast,340,2013-03-25 23:34:00
7:55 PM,35.2,22.6,60,29.91,10.0,NNW,11.5,17.3,N/A,,Overcast,330,2013-03-25 23:55:00
8:14 PM,34.5,23.9,65,29.92,10.0,NW,11.5,-,N/A,,Overcast,320,2013-03-26 00:14:00
8:34 PM,34.2,23.9,66,29.93,10.0,NNW,9.2,-,N/A,,Overcast,330,2013-03-26 00:34:00
8:54 PM,33.8,23.9,67,29.94,10.0,NNW,10.4,-,N/A,,Overcast,330,2013-03-26 00:54:00
9:15 PM,33.6,24.1,68,29.95,10.0,NW,10.4,-,N/A,,Overcast,320,2013-03-26 01:15:00
9:34 PM,32.9,24.6,72,29.96,10.0,NW,9.2,-,N/A,,Overcast,310,2013-03-26 01:34:00
9:54 PM,32.5,24.6,73,29.96,10.0,NW,10.4,-,N/A,,Overcast,310,2013-03-26 01:54:00
10:14 PM,32.9,24.3,71,29.97,10.0,NW,9.2,-,N/A,,Overcast,320,2013-03-26 02:14:00
10:35 PM,32.5,24.4,72,29.98,10.0,NW,9.2,-,N/A,,Overcast,320,2013-03-26 02:35:00
10:55 PM,32.4,24.4,73,29.98,10.0,NW,8.1,-,N/A,,Overcast,320,2013-03-26 02:55:00
11:14 PM,32.5,24.6,73,29.98,10.0,NW,10.4,-,N/A,,Overcast,320,2013-03-26 03:14:00
11:35 PM,32.9,24.6,72,29.99,10.0,NW,10.4,-,N/A,,Overcast,320,2013-03-26 03:35:00
11:54 PM,32.5,25.3,75,29.99,10.0,NW,8.1,-,N/A,,Overcast,320,2013-03-26 03:54:00